QPF
0.01 0.01 0.00 0.00 0.00 0.00 0.01 0.02 0.02 0.02 0.01 0.01 0.01 0.02 0.01 0.00 0.01 0.02 0.02 0.02 0.02 0.02 0.02 0.03 0.02 0.02 0.02 0.01 0.01 0.01 0.01 0.02 0.03 0.03 0.03 0.03 0.03 0.04 0.05 0.05 0.05 0.05 0.06 0.05
0.01 0.01 0.00 0.00 0.01 0.01 0.01 0.01 0.01 0.01 0.01 0.01 0.01 0.01 0.01 0.01 0.01 0.02 0.02 0.01 0.02 0.02 0.02 0.02 0.02 0.01 0.01 0.01 0.01 0.01 0.01 0.01 0.01 0.01 0.02 0.02 0.02 0.03 0.04 0.05 0.06 0.05 0.05 0.04
0.01 0.01 0.01 0.01 0.01 0.02 0.02 0.01 0.01 0.01 0.01 0.01 0.01 0.01 0.02 0.02 0.01 0.02 0.01 0.02 0.02 0.03 0.03 0.03 0.02 0.02 0.01 0.01 0.01 0.01 0.01 0.01 0.01 0.01 0.01 0.01 0.02 0.03 0.02 0.04 0.05 0.04 0.03 0.03
0.01 0.01 0.02 0.01 0.00 0.01 0.01 0.01 0.01 0.00 0.00 0.00 0.01 0.01 0.01 0.01 0.02 0.02 0.02 0.01 0.02 0.03 0.02 0.02 0.02 0.02 0.01 0.01 0.01 0.00 0.00 0.01 0.00 0.00 0.01 0.02 0.04 0.04 0.03 0.03 0.02 0.02 0.02 0.03
0.02 0.02 0.01 0.01 0.00 0.00 0.00 0.01 0.01 0.00 0.00 0.00 0.00 0.01 0.01 0.01 0.02 0.02 0.01 0.01 0.01 0.02 0.02 0.02 0.01 0.01 0.02 0.01 0.00 0.00 0.00 0.01 0.01 0.02 0.03 0.03 0.03 0.03 0.02 0.02 0.02 0.02 0.02 0.02
0.02 0.02 0.02 0.01 0.00 0.00 0.01 0.02 0.01 0.01 0.01 0.00 0.01 0.02 0.02 0.01 0.01 0.02 0.01 0.01 0.01 0.02 0.02 0.01 0.01 0.01 0.01 0.01 0.01 0.01 0.01 0.02 0.02 0.02 0.02 0.03 0.02 0.01 0.01 0.01 0.02 0.01 0.01 0.02
0.02 0.02 0.02 0.01 0.00 0.01 0.03 0.04 0.01 0.01 0.02 0.01 0.02 0.02 0.01 0.01 0.01 0.01 0.01 0.01 0.01 0.01 0.01 0.01 0.01 0.02 0.01 0.01 0.02 0.02 0.02 0.02 0.02 0.01 0.01 0.01 0.01 0.01 0.01 0.01 0.01 0.01 0.01 0.02
0.02 0.03 0.03 0.01 0.00 0.01 0.02 0.01 0.01 0.01 0.02 0.02 0.01 0.00 0.00 0.01 0.01 0.01 0.01 0.00 0.00 0.00 0.01 0.01 0.01 0.02 0.03 0.03 0.02 0.02 0.02 0.02 0.02 0.01 0.01 0.00 0.00 0.01 0.01 0.01 0.01 0.02 0.02 0.02
0.03 0.04 0.03 0.02 0.01 0.01 0.00 0.01 0.01 0.01 0.01 0.01 0.01 0.02 0.01 0.01 0.01 0.01 0.01 0.00 0.00 0.01 0.02 0.02 0.02 0.02 0.03 0.03 0.02 0.03 0.03 0.02 0.03 0.02 0.01 0.01 0.00 0.00 0.01 0.01 0.00 0.00 0.01 0.01
0.03 0.02 0.03 0.03 0.02 0.01 0.01 0.00 0.01 0.01 0.01 0.01 0.01 0.02 0.02 0.01 0.02 0.01 0.01 0.01 0.01 0.01 0.02 0.03 0.02 0.01 0.01 0.02 0.02 0.04 0.03 0.03 0.03 0.03 0.02 0.01 0.01 0.00 0.00 0.00 0.00 0.00 0.00 0.01
0.04 0.04 0.05 0.05 0.03 0.02 0.01 0.01 0.01 0.02 0.02 0.02 0.01 0.02 0.02 0.02 0.02 0.02 0.01 0.01 0.01 0.01 0.02 0.02 0.02 0.01 0.01 0.01 0.02 0.03 0.02 0.02 0.02 0.02 0.02 0.01 0.01 0.01 0.00 0.00 0.00 0.00 0.00 0.00
0.05 0.04 0.05 0.04 0.03 0.02 0.01 0.01 0.01 0.02 0.04 0.04 0.02 0.02 0.02 0.02 0.03 0.02 0.01 0.01 0.01 0.01 0.01 0.01 0.01 0.01 0.01 0.01 0.02 0.03 0.03 0.03 0.02 0.02 0.02 0.01 0.01 0.01 0.01 0.00 0.00 0.00 0.00 0.00
0.04 0.03 0.03 0.03 0.03 0.03 0.02 0.01 0.01 0.01 0.02 0.03 0.03 0.02 0.02 0.03 0.02 0.02 0.01 0.01 0.01 0.01 0.00 0.01 0.01 0.01 0.01 0.01 0.01 0.03 0.04 0.03 0.03 0.02 0.02 0.02 0.01 0.01 0.01 0.01 0.01 0.01 0.01 0.01
0.02 0.02 0.02 0.02 0.02 0.03 0.02 0.02 0.02 0.02 0.02 0.02 0.03 0.02 0.01 0.02 0.03 0.02 0.01 0.01 0.01 0.01 0.00 0.00 0.01 0.01 0.01 0.01 0.01 0.01 0.04 0.03 0.02 0.02 0.02 0.02 0.01 0.01 0.01 0.01 0.01 0.01 0.01 0.01
0.02 0.02 0.03 0.02 0.02 0.02 0.02 0.02 0.03 0.03 0.02 0.02 0.03 0.03 0.02 0.02 0.03 0.03 0.02 0.01 0.01 0.01 0.01 0.01 0.01 0.01 0.01 0.01 0.01 0.02 0.03 0.03 0.02 0.01 0.02 0.01 0.01 0.01 0.01 0.01 0.01 0.01 0.01 0.01
0.01 0.02 0.02 0.02 0.02 0.01 0.02 0.02 0.02 0.02 0.02 0.03 0.03 0.04 0.04 0.03 0.03 0.03 0.02 0.02 0.03 0.03 0.02 0.02 0.02 0.02 0.01 0.02 0.02 0.03 0.03 0.02 0.01 0.01 0.02 0.01 0.01 0.01 0.01 0.01 0.01 0.01 0.01 0.01
0.01 0.02 0.01 0.02 0.02 0.01 0.02 0.01 0.01 0.01 0.01 0.02 0.03 0.03 0.03 0.04 0.04 0.04 0.03 0.03 0.03 0.03 0.03 0.03 0.04 0.03 0.02 0.02 0.03 0.03 0.02 0.02 0.00 0.01 0.01 0.01 0.01 0.00 0.00 0.01 0.01 0.01 0.01 0.01
0.00 0.01 0.01 0.02 0.02 0.02 0.02 0.02 0.02 0.02 0.02 0.02 0.03 0.04 0.04 0.04 0.04 0.04 0.04 0.05 0.05 0.04 0.05 0.05 0.05 0.04 0.03 0.02 0.02 0.02 0.02 0.02 0.01 0.01 0.00 0.00 0.00 0.00 0.00 0.00 0.00 0.01 0.01 0.01
0.00 0.01 0.01 0.01 0.03 0.03 0.02 0.02 0.02 0.02 0.02 0.03 0.03 0.04 0.05 0.04 0.03 0.03 0.04 0.04 0.06 0.06 0.08 0.07 0.05 0.04 0.03 0.03 0.02 0.01 0.01 0.02 0.02 0.01 0.01 0.01 0.00 0.00 0.00 0.01 0.01 0.00 0.00 0.01
0.00 0.01 0.01 0.01 0.02 0.02 0.02 0.02 0.01 0.02 0.03 0.03 0.04 0.04 0.04 0.04 0.04 0.04 0.04 0.04 0.06 0.07 0.07 0.06 0.04 0.04 0.04 0.04 0.03 0.02 0.02 0.03 0.03 0.02 0.02 0.01 0.01 0.01 0.01 0.01 0.01 0.00 0.00 0.01
0.01 0.01 0.01 0.02 0.02 0.03 0.03 0.02 0.02 0.03 0.07 0.08 0.08 0.08 0.06 0.06 0.06 0.06 0.06 0.06 0.05 0.05 0.06 0.05 0.04 0.05 0.04 0.04 0.03 0.02 0.02 0.03 0.03 0.02 0.02 0.02 0.02 0.02 0.02 0.01 0.01 0.01 0.01 0.01
0.02 0.02 0.02 0.02 0.02 0.02 0.03 0.03 0.04 0.04 0.06 0.08 0.08 0.09 0.09 0.08 0.07 0.07 0.07 0.07 0.06 0.05 0.06 0.05 0.04 0.04 0.04 0.04 0.04 0.03 0.02 0.03 0.03 0.02 0.02 0.02 0.02 0.04 0.04 0.04 0.03 0.02 0.02 0.02
0.02 0.02 0.02 0.03 0.03 0.03 0.03 0.03 0.04 0.05 0.07 0.07 0.05 0.06 0.08 0.07 0.06 0.06 0.06 0.04 0.04 0.04 0.04 0.04 0.04 0.05 0.04 0.03 0.03 0.03 0.03 0.03 0.03 0.02 0.01 0.01 0.01 0.02 0.02 0.03 0.03 0.03 0.03 0.03
0.03 0.03 0.03 0.03 0.04 0.04 0.03 0.04 0.04 0.04 0.05 0.05 0.05 0.04 0.04 0.05 0.04 0.04 0.04 0.03 0.02 0.02 0.02 0.02 0.02 0.03 0.04 0.04 0.03 0.03 0.03 0.03 0.02 0.01 0.01 0.01 0.01 0.01 0.02 0.03 0.03 0.04 0.05 0.03
0.02 0.03 0.04 0.04 0.05 0.06 0.06 0.05 0.05 0.05 0.05 0.05 0.05 0.05 0.04 0.04 0.03 0.03 0.03 0.02 0.02 0.02 0.02 0.02 0.01 0.01 0.02 0.03 0.03 0.03 0.03 0.03 0.03 0.03 0.03 0.03 0.02 0.01 0.02 0.03 0.03 0.03 0.03 0.03
0.03 0.04 0.05 0.04 0.05 0.04 0.04 0.03 0.03 0.03 0.04 0.04 0.04 0.04 0.03 0.02 0.01 0.02 0.01 0.01 0.02 0.02 0.02 0.02 0.01 0.01 0.01 0.02 0.03 0.04 0.04 0.03 0.03 0.04 0.04 0.04 0.03 0.03 0.02 0.02 0.03 0.02 0.02 0.02
0.01 0.02 0.03 0.03 0.03 0.03 0.03 0.02 0.02 0.02 0.02 0.02 0.02 0.02 0.02 0.01 0.01 0.01 0.01 0.01 0.02 0.02 0.02 0.01 0.01 0.01 0.01 0.01 0.01 0.03 0.04 0.05 0.03 0.03 0.03 0.03 0.04 0.04 0.02 0.02 0.03 0.03 0.03 0.03
MSLP
1000.56 1000.23 999.98 999.87 999.94 1000.21 1000.68 1001.29 1002.01 1002.76 1003.47 1004.09 1004.55 1004.85 1005.00 1005.02 1004.95 1004.84 1004.74 1004.69 1004.72 1004.82 1005.00 1005.23 1005.50 1005.78 1006.06 1006.32 1006.55 1006.77 1006.97 1007.15 1007.33 1007.49 1007.62 1007.72 1007.77 1007.77 1007.70 1007.57 1007.39 1007.17 1006.93 1006.69
1000.58 1000.37 1000.18 1000.06 1000.08 1000.27 1000.64 1001.20 1001.90 1002.70 1003.53 1004.31 1005.00 1005.54 1005.92 1006.14 1006.23 1006.22 1006.16 1006.08 1006.03 1006.03 1006.08 1006.17 1006.30 1006.46 1006.61 1006.76 1006.89 1007.00 1007.11 1007.20 1007.30 1007.39 1007.48 1007.55 1007.58 1007.58 1007.52 1007.40 1007.23 1007.02 1006.78 1006.53
1000.79 1000.73 1000.62 1000.54 1000.54 1000.68 1000.98 1001.48 1002.14 1002.94 1003.82 1004.70 1005.51 1006.20 1006.73 1007.09 1007.29 1007.35 1007.32 1007.23 1007.13 1007.06 1007.01 1007.01 1007.04 1007.09 1007.14 1007.19 1007.21 1007.22 1007.22 1007.22 1007.22 1007.23 1007.24 1007.26 1007.27 1007.25 1007.20 1007.09 1006.94 1006.73 1006.49 1006.24
1001.20 1001.28 1001.29 1001.26 1001.27 1001.38 1001.64 1002.07 1002.68 1003.43 1004.28 1005.17 1006.01 1006.76 1007.35 1007.77 1008.02 1008.12 1008.11 1008.02 1007.90 1007.79 1007.70 1007.63 1007.60 1007.57 1007.54 1007.49 1007.42 1007.32 1007.21 1007.10 1007.00 1006.91 1006.86 1006.82 1006.80 1006.76 1006.71 1006.62 1006.48 1006.29 1006.06 1005.81
1001.77 1001.99 1002.10 1002.15 1002.19 1002.29 1002.51 1002.87 1003.40 1004.07 1004.85 1005.66 1006.46 1007.17 1007.74 1008.16 1008.41 1008.52 1008.51 1008.42 1008.30 1008.18 1008.07 1007.98 1007.90 1007.83 1007.73 1007.60 1007.43 1007.24 1007.02 1006.80 1006.59 1006.42 1006.30 1006.21 1006.15 1006.11 1006.06 1005.99 1005.88 1005.72 1005.52 1005.28
1002.47 1002.80 1003.00 1003.12 1003.20 1003.30 1003.49 1003.79 1004.23 1004.79 1005.45 1006.15 1006.83 1007.45 1007.94 1008.30 1008.52 1008.60 1008.59 1008.51 1008.40 1008.28 1008.17 1008.07 1007.97 1007.85 1007.70 1007.49 1007.24 1006.95 1006.64 1006.32 1006.03 1005.78 1005.59 1005.46 1005.39 1005.35 1005.32 1005.28 1005.21 1005.09 1004.93 1004.74
1003.26 1003.65 1003.93 1004.11 1004.23 1004.34 1004.50 1004.75 1005.10 1005.54 1006.06 1006.61 1007.16 1007.64 1008.02 1008.30 1008.45 1008.50 1008.47 1008.39 1008.28 1008.17 1008.07 1007.96 1007.84 1007.68 1007.48 1007.21 1006.88 1006.51 1006.11 1005.72 1005.35 1005.05 1004.82 1004.67 1004.59 1004.56 1004.56 1004.55 1004.53 1004.47 1004.36 1004.22
1004.10 1004.54 1004.86 1005.08 1005.23 1005.36 1005.50 1005.70 1005.96 1006.30 1006.68 1007.09 1007.48 1007.82 1008.08 1008.25 1008.33 1008.33 1008.28 1008.19 1008.08 1007.97 1007.87 1007.74 1007.60 1007.40 1007.15 1006.82 1006.43 1005.99 1005.52 1005.07 1004.66 1004.32 1004.06 1003.91 1003.83 1003.82 1003.85 1003.89 1003.92 1003.91 1003.87 1003.79
1005.01 1005.45 1005.79 1006.03 1006.20 1006.34 1006.47 1006.62 1006.82 1007.05 1007.32 1007.59 1007.84 1008.04 1008.18 1008.26 1008.26 1008.21 1008.12 1008.01 1007.90 1007.78 1007.66 1007.51 1007.33 1007.09 1006.78 1006.40 1005.96 1005.46 1004.96 1004.47 1004.03 1003.68 1003.42 1003.26 1003.20 1003.21 1003.26 1003.33 1003.40 1003.44 1003.45 1003.42
1005.96 1006.39 1006.72 1006.97 1007.14 1007.27 1007.39 1007.51 1007.65 1007.80 1007.96 1008.12 1008.25 1008.34 1008.37 1008.36 1008.29 1008.19 1008.07 1007.94 1007.80 1007.65 1007.50 1007.32 1007.09 1006.80 1006.45 1006.02 1005.53 1005.01 1004.48 1003.98 1003.54 1003.18 1002.92 1002.77 1002.72 1002.73 1002.80 1002.88 1002.97 1003.03 1003.07 1003.07
1006.97 1007.35 1007.65 1007.87 1008.04 1008.15 1008.25 1008.34 1008.42 1008.51 1008.59 1008.65 1008.69 1008.68 1008.63 1008.55 1008.42 1008.27 1008.11 1007.94 1007.77 1007.59 1007.40 1007.17 1006.89 1006.56 1006.15 1005.69 1005.18 1004.64 1004.11 1003.62 1003.18 1002.84 1002.59 1002.44 1002.38 1002.39 1002.44 1002.51 1002.58 1002.64 1002.68 1002.70
1007.99 1008.31 1008.56 1008.74 1008.86 1008.95 1009.01 1009.06 1009.10 1009.13 1009.14 1009.13 1009.09 1009.01 1008.90 1008.75 1008.58 1008.39 1008.19 1007.98 1007.77 1007.55 1007.31 1007.03 1006.70 1006.32 1005.89 1005.40 1004.88 1004.35 1003.83 1003.36 1002.95 1002.61 1002.37 1002.22 1002.13 1002.11 1002.12 1002.14 1002.18 1002.20 1002.22 1002.24
1008.99 1009.23 1009.41 1009.52 1009.59 1009.62 1009.64 1009.64 1009.62 1009.60 1009.55 1009.48 1009.38 1009.25 1009.08 1008.89 1008.68 1008.45 1008.22 1007.98 1007.72 1007.46 1007.17 1006.84 1006.48 1006.06 1005.60 1005.11 1004.60 1004.08 1003.59 1003.14 1002.75 1002.44 1002.20 1002.02 1001.91 1001.83 1001.78 1001.75 1001.72 1001.70 1001.68 1001.67
1009.90 1010.04 1010.13 1010.16 1010.15 1010.12 1010.07 1010.01 1009.95 1009.86 1009.76 1009.64 1009.49 1009.31 1009.11 1008.89 1008.64 1008.39 1008.12 1007.85 1007.56 1007.26 1006.93 1006.56 1006.17 1005.73 1005.26 1004.77 1004.27 1003.78 1003.33 1002.91 1002.55 1002.25 1002.00 1001.81 1001.65 1001.52 1001.41 1001.30 1001.21 1001.12 1001.06 1001.03
1010.63 1010.68 1010.66 1010.60 1010.51 1010.40 1010.29 1010.17 1010.04 1009.90 1009.75 1009.58 1009.39 1009.18 1008.95 1008.70 1008.44 1008.16 1007.87 1007.58 1007.26 1006.93 1006.57 1006.18 1005.76 1005.32 1004.85 1004.37 1003.89 1003.43 1003.01 1002.63 1002.29 1002.00 1001.75 1001.53 1001.34 1001.16 1000.99 1000.82 1000.67 1000.54 1000.44 1000.39
1011.13 1011.08 1010.96 1010.81 1010.64 1010.46 1010.28 1010.10 1009.92 1009.73 1009.54 1009.33 1009.11 1008.87 1008.62 1008.36 1008.08 1007.80 1007.50 1007.18 1006.86 1006.50 1006.13 1005.72 1005.30 1004.85 1004.39 1003.92 1003.47 1003.04 1002.65 1002.29 1001.98 1001.70 1001.45 1001.22 1001.00 1000.79 1000.57 1000.37 1000.18 1000.01 999.90 999.85
1011.38 1011.23 1011.03 1010.80 1010.56 1010.32 1010.09 1009.86 1009.63 1009.41 1009.18 1008.95 1008.70 1008.45 1008.19 1007.92 1007.64 1007.36 1007.06 1006.74 1006.41 1006.05 1005.67 1005.27 1004.84 1004.40 1003.94 1003.50 1003.07 1002.67 1002.30 1001.96 1001.67 1001.40 1001.16 1000.92 1000.69 1000.46 1000.23 1000.01 999.81 999.64 999.53 999.48
1011.39 1011.16 1010.90 1010.62 1010.33 1010.05 1009.78 1009.52 1009.26 1009.02 1008.77 1008.52 1008.27 1008.01 1007.75 1007.49 1007.22 1006.94 1006.65 1006.35 1006.02 1005.67 1005.30 1004.91 1004.49 1004.05 1003.61 1003.18 1002.77 1002.38 1002.03 1001.71 1001.43 1001.17 1000.94 1000.71 1000.49 1000.26 1000.04 999.82 999.63 999.48 999.38 999.36
1011.21 1010.94 1010.65 1010.34 1010.03 1009.74 1009.45 1009.18 1008.91 1008.66 1008.40 1008.15 1007.90 1007.65 1007.40 1007.14 1006.89 1006.63 1006.37 1006.09 1005.79 1005.46 1005.11 1004.73 1004.33 1003.91 1003.49 1003.07 1002.67 1002.29 1001.95 1001.64 1001.36 1001.11 1000.88 1000.67 1000.46 1000.25 1000.05 999.86 999.70 999.57 999.49 999.47
1010.95 1010.67 1010.37 1010.06 1009.76 1009.47 1009.19 1008.92 1008.66 1008.40 1008.15 1007.91 1007.66 1007.42 1007.19 1006.96 1006.73 1006.50 1006.27 1006.02 1005.76 1005.47 1005.15 1004.81 1004.43 1004.04 1003.63 1003.22 1002.83 1002.45 1002.10 1001.79 1001.51 1001.26 1001.04 1000.83 1000.64 1000.46 1000.28 1000.13 999.99 999.88 999.82 999.81
1010.71 1010.44 1010.15 1009.87 1009.58 1009.31 1009.05 1008.79 1008.54 1008.29 1008.05 1007.81 1007.58 1007.35 1007.14 1006.93 1006.74 1006.55 1006.36 1006.16 1005.95 1005.71 1005.44 1005.13 1004.79 1004.43 1004.04 1003.65 1003.26 1002.88 1002.52 1002.20 1001.91 1001.65 1001.42 1001.22 1001.04 1000.87 1000.72 1000.59 1000.47 1000.37 1000.31 1000.28
1010.58 1010.32 1010.06 1009.80 1009.55 1009.30 1009.05 1008.80 1008.56 1008.32 1008.08 1007.85 1007.62 1007.42 1007.23 1007.05 1006.90 1006.75 1006.61 1006.47 1006.31 1006.13 1005.92 1005.66 1005.37 1005.05 1004.69 1004.31 1003.92 1003.54 1003.17 1002.83 1002.52 1002.24 1002.00 1001.79 1001.61 1001.45 1001.31 1001.18 1001.07 1000.97 1000.89 1000.82
1010.60 1010.37 1010.13 1009.89 1009.65 1009.41 1009.16 1008.92 1008.68 1008.43 1008.20 1007.97 1007.76 1007.57 1007.40 1007.26 1007.14 1007.04 1006.96 1006.88 1006.78 1006.67 1006.52 1006.33 1006.09 1005.81 1005.48 1005.13 1004.75 1004.36 1003.98 1003.62 1003.29 1002.99 1002.72 1002.49 1002.30 1002.13 1001.99 1001.85 1001.73 1001.62 1001.50 1001.39
1010.77 1010.56 1010.33 1010.10 1009.85 1009.61 1009.35 1009.10 1008.84 1008.59 1008.35 1008.13 1007.92 1007.75 1007.61 1007.50 1007.42 1007.37 1007.35 1007.33 1007.30 1007.25 1007.16 1007.03 1006.85 1006.62 1006.34 1006.00 1005.64 1005.25 1004.87 1004.49 1004.13 1003.80 1003.50 1003.25 1003.03 1002.85 1002.68 1002.54 1002.40 1002.26 1002.11 1001.95
1011.08 1010.86 1010.63 1010.37 1010.11 1009.84 1009.56 1009.29 1009.02 1008.75 1008.51 1008.28 1008.09 1007.94 1007.82 1007.75 1007.71 1007.71 1007.73 1007.77 1007.80 1007.81 1007.78 1007.71 1007.59 1007.40 1007.15 1006.85 1006.50 1006.12 1005.73 1005.34 1004.96 1004.60 1004.28 1004.00 1003.76 1003.55 1003.36 1003.19 1003.03 1002.86 1002.68 1002.49
1011.45 1011.21 1010.94 1010.66 1010.36 1010.06 1009.75 1009.46 1009.17 1008.90 1008.65 1008.44 1008.26 1008.13 1008.04 1008.00 1008.00 1008.04 1008.10 1008.18 1008.26 1008.31 1008.34 1008.31 1008.23 1008.08 1007.87 1007.59 1007.26 1006.90 1006.51 1006.11 1005.72 1005.35 1005.01 1004.70 1004.44 1004.20 1004.00 1003.81 1003.62 1003.44 1003.24 1003.01
1011.81 1011.53 1011.23 1010.90 1010.57 1010.23 1009.91 1009.60 1009.31 1009.04 1008.81 1008.62 1008.47 1008.37 1008.31 1008.30 1008.34 1008.40 1008.49 1008.59 1008.69 1008.77 1008.82 1008.82 1008.76 1008.64 1008.46 1008.21 1007.90 1007.55 1007.17 1006.78 1006.39 1006.01 1005.66 1005.34 1005.06 1004.81 1004.59 1004.38 1004.19 1003.99 1003.78 1003.55
Thickness
5760 5769 5772 5771 5771 5775 5769 5766 5758 5758 5753 5753 5755 5755 5753 5750 5746 5742 5738 5735 5730 5724 5720 5716 5712 5708 5704 5700 5696 5693 5688 5683 5679 5675 5673 5669 5666 5663 5660 5657 5654 5651 5648 5645
5748 5762 5767 5765 5770 5770 5767 5767 5764 5760 5752 5757 5758 5756 5751 5747 5743 5737 5734 5731 5726 5721 5716 5712 5708 5705 5701 5698 5694 5691 5686 5682 5678 5675 5672 5669 5665 5662 5658 5655 5652 5649 5646 5643
5732 5751 5753 5745 5762 5764 5763 5765 5759 5747 5747 5752 5747 5744 5740 5738 5737 5732 5729 5727 5722 5717 5713 5709 5706 5702 5698 5695 5693 5689 5685 5681 5677 5674 5671 5668 5665 5661 5657 5654 5651 5648 5644 5641
5727 5729 5715 5748 5773 5769 5761 5757 5756 5750 5749 5747 5743 5741 5738 5736 5731 5727 5725 5720 5716 5714 5710 5707 5704 5700 5697 5694 5690 5687 5683 5680 5677 5673 5670 5666 5663 5659 5656 5653 5649 5646 5643 5640
5717 5714 5724 5745 5757 5757 5748 5741 5746 5743 5742 5741 5740 5735 5729 5730 5729 5725 5722 5718 5714 5711 5708 5705 5701 5697 5694 5690 5687 5684 5681 5678 5675 5672 5668 5664 5661 5658 5655 5652 5648 5645 5642 5639
5710 5702 5704 5726 5748 5757 5745 5726 5736 5735 5731 5731 5729 5714 5713 5722 5723 5721 5718 5715 5711 5708 5706 5702 5698 5695 5691 5687 5684 5681 5680 5677 5675 5671 5667 5663 5660 5657 5655 5651 5648 5646 5642 5639
5700 5698 5709 5727 5740 5742 5714 5708 5726 5727 5724 5721 5715 5711 5714 5717 5715 5714 5712 5710 5707 5703 5700 5698 5696 5692 5687 5684 5681 5681 5679 5677 5673 5670 5667 5663 5660 5656 5653 5651 5648 5645 5642 5639
5698 5689 5693 5719 5721 5710 5704 5715 5718 5717 5716 5713 5711 5710 5710 5709 5707 5707 5704 5703 5701 5697 5694 5693 5692 5688 5683 5680 5681 5679 5677 5674 5671 5668 5666 5663 5658 5655 5653 5650 5647 5644 5641 5638
5694 5690 5699 5708 5705 5706 5709 5706 5707 5707 5707 5706 5703 5702 5702 5701 5700 5700 5698 5696 5694 5692 5688 5687 5687 5684 5680 5679 5679 5676 5673 5670 5668 5665 5663 5661 5657 5654 5651 5648 5645 5642 5639 5636
5687 5690 5694 5697 5699 5700 5700 5700 5701 5700 5700 5698 5695 5694 5693 5692 5692 5691 5691 5690 5689 5686 5682 5681 5681 5681 5679 5677 5675 5672 5669 5667 5665 5662 5660 5658 5655 5653 5649 5645 5642 5641 5638 5635
5676 5680 5683 5684 5686 5687 5690 5693 5692 5692 5692 5690 5688 5686 5684 5683 5684 5684 5683 5684 5683 5680 5678 5677 5677 5677 5676 5674 5672 5668 5665 5664 5662 5661 5658 5655 5652 5649 5647 5643 5640 5637 5635 5632
5661 5667 5666 5668 5676 5679 5678 5678 5680 5680 5681 5682 5681 5678 5677 5676 5677 5677 5677 5677 5676 5675 5674 5674 5673 5672 5673 5671 5669 5665 5662 5660 5660 5659 5657 5654 5651 5647 5643 5640 5637 5634 5631 5627
5661 5664 5664 5665 5667 5669 5669 5670 5672 5671 5671 5671 5672 5671 5670 5669 5670 5670 5670 5670 5670 5670 5670 5670 5669 5669 5669 5669 5666 5663 5660 5658 5657 5656 5654 5653 5650 5647 5642 5636 5633 5630 5628 5625
5656 5656 5652 5653 5654 5657 5658 5660 5662 5662 5662 5662 5662 5662 5662 5662 5663 5663 5663 5664 5665 5665 5665 5665 5664 5665 5666 5665 5663 5660 5657 5655 5653 5653 5652 5650 5649 5646 5644 5640 5634 5631 5626 5623
5645 5645 5642 5644 5645 5647 5648 5650 5649 5649 5651 5652 5653 5652 5653 5653 5654 5655 5657 5658 5658 5658 5658 5659 5658 5659 5660 5660 5657 5655 5653 5651 5650 5650 5649 5648 5646 5645 5644 5641 5637 5634 5630 5624
5634 5635 5635 5633 5633 5635 5637 5638 5637 5638 5640 5641 5642 5643 5645 5646 5647 5649 5649 5650 5649 5649 5651 5652 5652 5654 5655 5654 5652 5649 5646 5645 5644 5645 5645 5644 5643 5642 5641 5639 5637 5634 5631 5628
5620 5619 5621 5621 5623 5625 5627 5629 5630 5630 5631 5632 5633 5635 5637 5638 5639 5640 5641 5642 5643 5644 5645 5646 5647 5649 5650 5649 5646 5645 5643 5642 5639 5639 5640 5641 5640 5638 5638 5637 5635 5633 5631 5628
5614 5614 5614 5614 5615 5616 5619 5621 5623 5623 5623 5625 5627 5628 5628 5629 5630 5632 5634 5635 5636 5637 5639 5641 5643 5644 5644 5643 5642 5641 5640 5639 5637 5637 5637 5636 5635 5634 5634 5633 5632 5630 5628 5626
5606 5606 5607 5608 5609 5610 5611 5612 5614 5616 5617 5619 5620 5620 5621 5623 5625 5625 5627 5627 5627 5629 5632 5635 5635 5636 5637 5638 5636 5636 5636 5636 5634 5633 5633 5630 5629 5630 5630 5629 5628 5628 5627 5625
5597 5599 5600 5601 5602 5602 5603 5604 5607 5608 5610 5612 5612 5613 5615 5616 5617 5618 5618 5618 5621 5623 5626 5628 5629 5630 5631 5632 5629 5632 5632 5631 5630 5630 5629 5628 5626 5626 5626 5626 5625 5624 5624 5623
5588 5591 5592 5593 5594 5594 5595 5596 5598 5600 5602 5605 5605 5606 5607 5608 5609 5610 5609 5610 5614 5617 5619 5619 5622 5623 5625 5624 5622 5626 5627 5625 5625 5624 5623 5623 5622 5621 5621 5621 5620 5620 5619 5619
5577 5580 5582 5584 5585 5585 5587 5589 5591 5592 5594 5596 5598 5599 5600 5600 5602 5603 5604 5605 5607 5607 5610 5613 5615 5614 5615 5615 5619 5620 5621 5621 5620 5620 5618 5618 5617 5617 5616 5615 5615 5616 5616 5615
5568 5571 5573 5575 5577 5579 5582 5583 5585 5586 5587 5588 5590 5592 5593 5594 5596 5596 5596 5599 5602 5601 5604 5607 5606 5605 5605 5609 5612 5613 5615 5615 5614 5613 5613 5612 5613 5613 5613 5612 5612 5612 5612 5611
5560 5562 5565 5568 5571 5573 5574 5576 5578 5580 5582 5584 5586 5587 5588 5588 5590 5592 5594 5593 5593 5593 5597 5598 5596 5597 5597 5602 5605 5607 5607 5608 5609 5609 5609 5610 5610 5610 5609 5609 5609 5609 5608 5608
5554 5555 5558 5560 5563 5566 5569 5571 5572 5574 5576 5578 5580 5581 5583 5584 5585 5587 5587 5588 5586 5587 5590 5590 5590 5590 5593 5597 5599 5601 5602 5603 5605 5605 5605 5605 5606 5606 5606 5606 5606 5606 5605 5605
5548 5550 5552 5554 5557 5560 5564 5565 5566 5568 5570 5571 5574 5576 5577 5579 5580 5581 5581 5582 5583 5582 5584 5586 5586 5586 5590 5593 5595 5597 5597 5598 5599 5600 5600 5601 5601 5601 5602 5602 5602 5602 5602 5601
5543 5545 5546 5549 5552 5555 5557 5559 5560 5562 5564 5565 5567 5569 5571 5573 5574 5575 5576 5577 5578 5579 5580 5582 5583 5584 5587 5589 5591 5591 5592 5593 5594 5596 5596 5596 5597 5596 5597 5597 5597 5597 5597 5598